{"data":{"norad_id":55145,"epoch":"2026-09-19T11:09:26.567712Z","epoch_age_seconds":111348,"freshness":"FRESH","line1":"1 55145U 23004F   26262.46489083 -.00000026  00000+0 -99789-4 0  9994","line2":"2 55145  87.9160 316.7223 0001774  89.2285 270.9051 13.18686384182137","mean_motion":13.18686384,"eccentricity":0.0001774,"inclination_deg":87.916,"raan_deg":316.7223,"arg_perigee_deg":89.2285,"mean_anomaly_deg":270.9051,"bstar":-9.9789e-5,"rev_number":18213,"period_min":109.19958054257,"perigee_km":1188.3991160209,"apogee_km":1191.0841993686,"semimajor_km":7567.8786576948,"source":"CELESTRAK","updated_at":"2026-09-20T09:00:44.751014Z"}}